CZ-6A DEB, 61431

Orbit data source: Space-Track

CZ-6A DEB, 61431 is space debris in LEO originally from a launch on Tue, 06 Aug 2024 UTC launched from the Taiyaun Space Center, China (TSC). Debris objects in space refer to the collection of defunct objects orbiting the Earth. Examples of debris include non-operational satellites, rocket bodies, and fragments generated from explosions, collisions, or faulty payload assembly.

Loading next visibility...
Identifier
61431, 2024-140YY
Orbit
LEO
Country
Flag of CNCN / PRC
Related business
Manufacturer
SAST
Mission
Spacecraft
Bus & Motor
Unknown
Mass
Unknown
Launch date (UTC)
2024-08-06 (2 years ago)
Launch vehicle
Unknown
Launch site
Taiyaun Space Center, China (TSC)
Object type
Payload
Rocket body
Debris
Shape & HBR
Unknown shape, 0.1 m
Radar Cross Section
Medium (>0.1 m² and <1 m²)

Expand to show TLE details & history
Last TLE update: 14 hours ago

TLE from 14 hours ago
0 CZ-6A DEB
1 61431U 24140YY  26171.37576615  .00002600  00000-0  35340-3 0  9999
2 61431  89.1296 279.1733 0160033 191.7161 168.0318 14.69937164 97916
Epoch: 2026-06-20T09:01Z
TLE epoch observation values (Epoch: 2026-06-20T09:01:06.195Z)
Latitude
-0.00002°
Longitude
-124.6938°
Altitude
774.699 km
Speed
7.408 km/s
True Right ascension
18h 36m 41s
True Declination
0° 00' 00"
Sunlit
Object was in full shadow at epoch
Visualization orbit readout
Latitude
Unknown
Longitude
Unknown
Altitude
Unknown
Speed
Unknown
Apparent Right ascension
Unknown
Apparent Declination
Unknown
Sunlit
N/A
Visualization observer readout
Local Sidereal Time
10:18:57
Azimuth
Unknown
Elevation
Unknown
Doppler factor
Unknown
Orbital elements
Apogee altitude
770.751 km
Perigee altitude
545.543 km
Semi-major axis
7,036.284 km
Eccentricity
0.016
Inclination
89.1296°
RAAN
279.1733°
Arg. of periapsis
191.7161°
True anomaly
168.40477°
Mean anomaly
168.0318°
Eccentric anomaly
168.21901°
Mean motion
3.67729 °/min
Orbital period
97.9 mins
BSTAR
0.0003534
Loading maneuver chart data...
Computing Atmospheric mass density...
Loading historical data...
Loading historical data...
Loading historical data...
Loading historical data...
Loading historical data...
Loading historical data...
Loading historical data...

Documentation

Showing up to 5 results
|